Find Starlink 31104

NORAD ID: 58672 Int'l Des: 2023-211 Owner: SPXS Country: US Constellation: starlink operational
LEOCIRCULAR

当前视图

正在加载3D地球...

About Starlink 31104

Starlink 31104 (NORAD 58672) is a starlink constellation satellite (v2 mini) launched Dec 29, 2023 by SPXS of US. It operates in LEO, CIRCULAR orbit with a mass of 730.00 kg.

关于 Starlink 31104

正在加载描述...

即将过境

Passes for default location (London). Set your location on the main map for personalized predictions.

高度历史

Loading altitude history...

两行轨道根数

1 58672U 23211F 26177.46226298 .00064087 00000-0 97232-3 0 9990
2 58672 42.9895 174.9788 0021004 114.1099 246.1962 15.53487696140563
Epoch: Jun 26, 2026 • Age: 18 hours

当前状态

高度 420.2 km
速度 7.66 km/s
星下点 -31.94°S, 41.14°E
发射日期 Dec 29, 2023
运行时间 2.4 years
类型 internet

技术详情

分类 Payload
质量 730.00 kg
干质量 700.00 kg
总质量 730.00 kg
长度 0.30 m
直径 4.10 m
跨度 29.00 m
形状 Box + pan
制造商 SPXS
平台类型 Starlink V2M
阶段状态 In Orbit
所有者/国家 SPXS/US

Most Searched